Location: Baili�vre
(50.0696°N, 4.2409°E)
Time: 05:06:08
(UTC+00:00)

Meteor 1-13 Rocket - Pass Details

Date: 08 August 2020
Orbit: 830 x 913 km, 81.3° (Epoch: 23 September)

Event Time Altitude Azimuth Distance (km) Brightness Sun altitude
Rises 22:33:35 0° 346° (NNW) 3,404 8.9 -22.1°
Reaches altitude 10° 22:36:01 10° 344° (NNW) 2,458 7.8 -22.2°
Maximum altitude 22:41:32 72° 261° (W) 877 4.2 -22.5°
Enters shadow 22:43:04 47° 194° (SSW) 1,084 4.4 -22.6°
